Location: Bytom
(50.3475°N, 18.9244°E)
Time: 19:30:17
(UTC+02:00)

ISS - Visible Passes

Search period start: 20 October 2019 00:00
Search period end: 29 October 2019 23:00
Orbit: 411 x 421 km, 51.6° (Epoch: 20 October)

Date Brightness Start Highest point End Pass type
(mag) Time Alt. Az. Time Alt. Az. Time Alt. Az.
25 Oct -0.8 06:02:50 10° S 06:04:48 15° SE 06:06:45 10° ESE visible
26 Oct -2.5 06:49:15 10° SW 06:52:27 42° SSE 06:55:40 10° E visible
27 Oct -2.0 05:00:56 10° SSW 05:03:55 29° SSE 05:06:54 10° E visible
28 Oct -1.6 04:14:29 18° SSE 04:15:25 20° SE 04:18:00 10° E visible
28 Oct -3.6 05:48:25 10° WSW 05:51:47 75° SSE 05:55:09 10° ENE visible
29 Oct -0.6 03:28:11 12° ESE 03:28:11 12° ESE 03:28:45 10° ESE visible
29 Oct -3.2 05:01:05 20° SW 05:03:09 56° SSE 05:06:28 10° ENE visible
